[[{"header":{"parameterUnit":"m.s-1","parameterCategory":2,"la1":30.2991,"la2":30.254,"lo1":-89.0895,"lo2":-89.0444,"dy":0.0017,"dx":0.0017,"nx":28,"ny":28,"refTime":"2025-07-03T21:00:00:Z","depth":"0","parameterNumber":2,"parameterNumberName":"U-component_of_CURRENTS"},"data":[0,0,0,0,0,0,0,0,0,0,0,0,0,0,0,0,0,0,0,0,0,0,0,0,0,0,0,0,0,0,0,0,0,0,0,0,0,0,0,0,0,0,0,0,0,0,0,0,0,0,0,0,0,0,0,0,0,0,0.1045,0.1045,0,0.106,0.106,0.1061,0.1068,0.1068,0.1068,0.1068,0.1082,0.1082,0.1083,0,0,0,0,0,0,0,0,0,0,0,0,0,0.103,0.103,0.1045,0.1045,0.1045,0.106,0.106,0.1061,0.1068,0.1068,0.1068,0.1068,0.1082,0.1082,0.1083,0,0,0,0,0,0,0,0,0,0,0,0,0,0.104,0.103,0.1045,0.1051,0.1051,0.106,0.106,0.1061,0.1068,0.1068,0.1068,0.1067,0.1082,0.1082,0.1083,0.1087,0,0,0.1085,0.1085,0,0,0,0,0,0,0,0,0.1039,0.104,0.105,0.105,0.1051,0.1062,0.106,0.1069,0.1068,0.1061,0.1068,0.1067,0.1075,0.1076,0.1079,0.1088,0.1088,0.1085,0.1085,0.1085,0.1085,0,0,0,0,0,0,0,0.1038,0.104,0.1051,0.105,0.1051,0.1055,0.1056,0.1062,0.1068,0.1062,0.1062,0.1064,0.1075,0.1079,0.108,0.1088,0.1085,0.1085,0.1085,0.1086,0.1153,0.1154,0,0,0,0,0,0,0.1036,0.1039,0.1051,0.1052,0.1045,0.1055,0.1057,0.1058,0.1068,0.107,0.1064,0.1064,0.1078,0.1079,0.108,0.1124,0.1085,0.1086,0.1086,0.1151,0.1153,0.1155,0,0,0,0,0,0,0.1036,0.1037,0.105,0.1046,0.1048,0.1055,0.1057,0.1059,0.1063,0.107,0.1071,0.1067,0.1078,0.1079,0.1102,0.1123,0.1086,0.1087,0.115,0.1152,0.1154,0.1187,0,0,0,0,0,0,0.1035,0.1037,0.1039,0.1045,0.1048,0.106,0.1057,0.1059,0.1064,0.1064,0.1073,0.1074,0.1078,0.1102,0.1103,0.1123,0.1087,0.1148,0.1151,0.1153,0.1184,0.119,0.1195,0,0,0,0,0,0.1035,0.1043,0.1039,0.104,0.1049,0.1061,0.1062,0.1068,0.1064,0.107,0.1084,0.1074,0.112,0.1103,0.1104,0.1125,0.1147,0.115,0.1153,0.1182,0.1189,0.1195,0,0,0,0,0,0,0.1041,0.1044,0.104,0.1049,0.1054,0.1062,0.1067,0.1068,0.1082,0.1083,0.1088,0.1091,0.1122,0.112,0.1101,0.1155,0.1133,0.1136,0.1154,0.1161,0.1167,0.1177,0.1088,0,0,0,0,0,0.1041,0.1045,0.1049,0.1056,0.1057,0.106,0.1064,0.1068,0.108,0.1085,0.1093,0.1109,0.1136,0.1144,0.1162,0.1184,0.124,0.1201,0.1207,0.1211,0.1222,0.1328,0.1345,0.1165,0.1165,0.1165,0,0,0.1048,0.1047,0.1052,0.1057,0.1059,0.1066,0.1063,0.1071,0.1084,0.1085,0.1106,0.1126,0.1147,0.1182,0.1194,0.1181,0.1298,0.1215,0.1219,0.1228,0.1334,0.1351,0.1367,0.1167,0.1167,0.1167,0,0,0.1063,0.1059,0.1068,0.1068,0.107,0.1073,0.1075,0.1083,0.1094,0.1114,0.1132,0.1169,0.1184,0.1221,0.1238,0.1283,0.1325,0.1283,0.1316,0.1419,0.1435,0.145,0.1571,0.1596,0.1284,0.1284,0.1284,0,0.1072,0.1078,0.1073,0.1077,0.1078,0.1076,0.1085,0.1097,0.1115,0.1142,0.1124,0.1208,0.1209,0.129,0.1298,0.1296,0.137,0.1286,0.1428,0.1443,0.1458,0.1579,0.1606,0.1286,0.1285,0.1285,0.1285,0,0.1098,0.1093,0.1097,0.1098,0.11,0.1108,0.1115,0.1134,0.1139,0.1163,0.1236,0.1261,0.132,0.1323,0.1314,0.1422,0.1449,0.1425,0.1411,0.1478,0.1601,0.1629,0.1288,0.1288,0.1287,0.1287,0,0,0.117,0.1121,0.1126,0.1122,0.1109,0.1125,0.1141,0.1179,0.1233,0.1248,0.1334,0.1362,0.1395,0.1418,0.1437,0.1506,0.1659,0.1502,0.1507,0.1625,0.1921,0.2026,0.2067,0.1665,0.167,0.1673,0.1976,0,0.12,0.119,0.1161,0.1172,0.1178,0.1165,0.1192,0.1227,0.1267,0.1352,0.1398,0.1485,0.1429,0.1486,0.1541,0.164,0.173,0.1581,0.1837,0.1845,0.1932,0.2101,0.2138,0.2419,0.2004,0.2008,0.2012,0,0.1279,0.1246,0.1246,0.1221,0.1225,0.1231,0.1297,0.1324,0.1422,0.1458,0.1543,0.1598,0.1715,0.1653,0.186,0.1773,0.1848,0.191,0.1923,0.2028,0.2003,0.228,0.2485,0.2338,0.2055,0.2051,0.2048,0,0.1397,0.1335,0.1332,0.1322,0.129,0.1302,0.13,0.1373,0.1438,0.1562,0.1653,0.1765,0.1876,0.1969,0.2082,0.1992,0.2329,0.2224,0.2399,0.2408,0.2494,0.2503,0.2589,0.2386,0.2385,0.2385,0.2384,0,0.1498,0.1515,0.1378,0.1399,0.1422,0.137,0.1457,0.1483,0.1566,0.1699,0.1734,0.1891,0.1961,0.2147,0.219,0.2432,0.2433,0.247,0.2516,0.251,0.2517,0.2432,0.2313,0.2396,0.2393,0.2391,0.2389,0,0.1701,0.1607,0.1617,0.1523,0.1499,0.1539,0.1537,0.162,0.1668,0.1853,0.1909,0.2052,0.23,0.2409,0.2615,0.2628,0.2755,0.2876,0.288,0.292,0.2895,0.2777,0.2852,0.2798,0.3122,0.3127,0.3131,0,0.181,0.1818,0.173,0.1726,0.1691,0.1697,0.1728,0.171,0.1797,0.1978,0.21,0.2353,0.2535,0.2888,0.3023,0.3215,0.2996,0.3322,0.3135,0.2969,0.2871,0.2646,0.2575,0.3274,0.3279,0.3283,0.3286,0,0.1988,0.1954,0.1932,0.1906,0.1908,0.192,0.1935,0.1991,0.203,0.2151,0.2333,0.2473,0.2854,0.3066,0.3336,0.3444,0.3172,0.3409,0.3242,0.3032,0.2793,0.2738,0.2989,0.3322,0.3318,0.3316,0.3314,0.3312,0.2095,0.2116,0.2044,0.2038,0.2055,0.2071,0.2076,0.2117,0.2196,0.2315,0.247,0.2656,0.2981,0.3366,0.3487,0.3644,0.345,0.3521,0.3413,0.3214,0.3094,0.3444,0.3806,0.3805,0.3804,0.3804,0.3803,0,0.2118,0.2117,0.2149,0.2098,0.2127,0.2115,0.2158,0.2149,0.2202,0.2387,0.2499,0.2823,0.3112,0.3375,0.3648,0.3583,0.3437,0.3493,0.314,0.3083,0.3446,0.3379,0.366,0.366,0.366,0.366,0.366,0.366,0.2109,0.2106,0.2108,0.2104,0.2104,0.2088,0.2089,0.212,0.2206,0.2351,0.2509,0.2666,0.2958,0.3269,0.3392,0.3394,0.3065,0.3048,0.2894,0.3078,0.3067,0.3056,0.2964,0.3153,0.3152,0.2487,0.2482,0.2478]},{"header":{"parameterUnit":"m.s-1","parameterCategory":2,"la1":30.2991,"la2":30.254,"lo1":-89.0895,"lo2":-89.0444,"dy":0.0017,"dx":0.0017,"nx":28,"ny":28,"refTime":"2025-07-03T21:00:00:Z","depth":"0","parameterNumber":3,"parameterNumberName":"V-component_of_CURRENTS"},"data":[0,0,0,0,0,0,0,0,0,0,0,0,0,0,0,0,0,0,0,0,0,0,0,0,0,0,0,0,0,0,0,0,0,0,0,0,0,0,0,0,0,0,0,0,0,0,0,0,0,0,0,0,0,0,0,0,0,0,-0.0047,-0.0047,0,-0.0089,-0.0089,-0.009,-0.0151,-0.0152,-0.0153,-0.0155,-0.0238,-0.0239,-0.024,0,0,0,0,0,0,0,0,0,0,0,0,0,0.0018,0.0017,-0.0047,-0.0047,-0.0048,-0.0089,-0.0089,-0.009,-0.0151,-0.0152,-0.0154,-0.0155,-0.0237,-0.0239,-0.024,0,0,0,0,0,0,0,0,0,0,0,0,0,-0.0015,0.0017,-0.0047,-0.0084,-0.0088,-0.0089,-0.0089,-0.009,-0.0151,-0.0152,-0.0154,-0.0156,-0.0237,-0.0239,-0.024,-0.0217,0,0,-0.0246,-0.0247,0,0,0,0,0,0,0,0,-0.0013,-0.0017,-0.0078,-0.0081,-0.0085,-0.0117,-0.0097,-0.0135,-0.015,-0.0126,-0.0155,-0.0156,-0.02,-0.0205,-0.0208,-0.0221,-0.0225,-0.0246,-0.0247,-0.0248,-0.0248,0,0,0,0,0,0,0,-0.0011,-0.0016,-0.0063,-0.0078,-0.0083,-0.0086,-0.0093,-0.0104,-0.0153,-0.0128,-0.0133,-0.0138,-0.0203,-0.0206,-0.021,-0.0226,-0.0246,-0.0247,-0.0249,-0.0249,-0.0251,-0.025,0,0,0,0,0,0,-0.0007,-0.0014,-0.0061,-0.0064,-0.0054,-0.0086,-0.0093,-0.0105,-0.0153,-0.0161,-0.0137,-0.0141,-0.0202,-0.0208,-0.0214,-0.0198,-0.0248,-0.0249,-0.025,-0.0252,-0.0251,-0.025,0,0,0,0,0,0,-0.0006,-0.0011,-0.006,-0.004,-0.0047,-0.0085,-0.0097,-0.0105,-0.0114,-0.0159,-0.0169,-0.014,-0.0204,-0.0211,-0.0222,-0.0202,-0.025,-0.0252,-0.0253,-0.0251,-0.025,-0.0161,0,0,0,0,0,0,-0.0004,-0.0011,-0.0008,-0.004,-0.0048,-0.0055,-0.0096,-0.0104,-0.0115,-0.0121,-0.0164,-0.0174,-0.0206,-0.0219,-0.0223,-0.0205,-0.0253,-0.0254,-0.0252,-0.0251,-0.0165,-0.0157,-0.015,0,0,0,0,0,-0.0001,0.0009,-0.0008,-0.0014,-0.0047,-0.0054,-0.0058,-0.0091,-0.0113,-0.0107,-0.0138,-0.0173,-0.0211,-0.0219,-0.0225,-0.0206,-0.0255,-0.0253,-0.0251,-0.0169,-0.0159,-0.015,0,0,0,0,0,0,0.0051,0.0002,-0.0017,-0.0019,-0.0034,-0.0065,-0.006,-0.0083,-0.0101,-0.0109,-0.0156,-0.0166,-0.017,-0.0196,-0.0205,-0.0202,-0.024,-0.0238,-0.0176,-0.0166,-0.0158,-0.0135,-0.0255,0,0,0,0,0,0.0062,0.0048,0.0012,0.0016,0.0007,-0.0024,-0.003,-0.0052,-0.0076,-0.0086,-0.0116,-0.0145,-0.0162,-0.0171,-0.0192,-0.0183,-0.0201,-0.0177,-0.0169,-0.0162,-0.0147,-0.0155,-0.0146,-0.0242,-0.0242,-0.0242,0,0,0.0086,0.0058,0.0053,0.0025,0.001,0.0005,-0.0032,-0.0036,-0.0034,-0.009,-0.0092,-0.0118,-0.0154,-0.015,-0.0154,-0.0171,-0.0142,-0.0159,-0.0153,-0.0142,-0.0152,-0.0143,-0.0134,-0.0241,-0.0241,-0.0241,0,0,0.0122,0.0101,0.0095,0.0081,0.0055,0.0039,0.0039,0.0009,0.0002,0.0001,-0.004,-0.0047,-0.0077,-0.009,-0.0103,-0.006,-0.0102,-0.0075,-0.0012,-0.002,-0.0012,-0.0005,-0.0007,-0.0001,-0.0068,-0.0068,-0.0068,0,0.0157,0.0133,0.0101,0.0091,0.0085,0.0054,0.0057,0.0054,0.0028,0.0043,0.0009,-0.0005,-0.0044,-0.0024,-0.0019,-0.004,-0.0054,-0.0045,-0.0008,-0.0002,0.0003,-0.0,0.0005,-0.0063,-0.0064,-0.0064,-0.0065,0,0.0176,0.016,0.0162,0.0131,0.013,0.0132,0.0114,0.0126,0.0114,0.0112,0.0132,0.0092,0.009,0.007,0.0034,0.0061,0.0037,0.0001,-0.0029,0.0019,0.0012,0.0016,-0.0057,-0.0058,-0.006,-0.0061,0,0,0.0254,0.0185,0.0187,0.0176,0.0148,0.0155,0.0174,0.0194,0.0234,0.0213,0.0265,0.0226,0.0221,0.0206,0.0167,0.0152,0.017,0.0096,0.0093,0.0101,0.0159,0.0148,0.0151,0.0136,0.0137,0.0138,0.0142,0,0.0282,0.0256,0.0222,0.0231,0.0224,0.0212,0.0245,0.0266,0.0284,0.0333,0.0317,0.0345,0.0269,0.0281,0.0256,0.0197,0.0183,0.0173,0.0105,0.0104,0.0094,0.0156,0.0221,0.023,0.0145,0.0146,0.0146,0,0.0319,0.0291,0.0282,0.0278,0.028,0.0292,0.0354,0.0381,0.0444,0.0463,0.0492,0.0485,0.0488,0.0408,0.0345,0.0341,0.0261,0.0201,0.0199,0.0163,0.0101,0.0165,0.024,0.0105,0.0152,0.0151,0.0151,0,0.0387,0.0351,0.0343,0.0334,0.0322,0.0347,0.0369,0.0429,0.0488,0.0561,0.0622,0.0612,0.0625,0.0537,0.0426,0.0386,0.035,0.0279,0.0197,0.0195,0.0226,0.0225,0.017,0.0231,0.0231,0.0231,0.0231,0,0.043,0.0436,0.0371,0.037,0.041,0.04,0.0486,0.0517,0.0601,0.0708,0.0701,0.0782,0.0653,0.0625,0.0493,0.0382,0.0406,0.0232,0.0204,0.0258,0.0261,0.0121,0.0018,0.0231,0.0231,0.0231,0.0231,0,0.0507,0.0454,0.0454,0.0431,0.0433,0.0473,0.0543,0.0629,0.0693,0.0834,0.0871,0.091,0.0889,0.0764,0.0629,0.048,0.0295,0.0311,0.0389,0.037,0.0143,0.0043,-0.004,-0.0123,0.0224,0.0224,0.0224,0,0.0534,0.0532,0.0503,0.0516,0.0502,0.0553,0.0617,0.0672,0.0771,0.0929,0.1016,0.1045,0.1096,0.0915,0.0702,0.0509,0.0328,0.0376,0.0299,0.0165,0.0032,-0.0034,-0.0104,0.0378,0.0379,0.038,0.038,0,0.0592,0.058,0.0576,0.0599,0.0635,0.0695,0.0781,0.0861,0.0975,0.1084,0.1232,0.1285,0.1185,0.1051,0.0786,0.0625,0.0292,0.0386,0.0237,0.0148,0.0086,-0.0017,0.0334,0.0389,0.0388,0.0388,0.0387,0.0387,0.0638,0.0655,0.065,0.0682,0.0742,0.0834,0.0894,0.1007,0.1144,0.1307,0.1369,0.1464,0.132,0.1,0.0773,0.0403,0.0336,0.0244,0.0136,0.0084,-0.0003,0.0366,0.0385,0.0384,0.0384,0.0383,0.0382,0,0.0653,0.068,0.0735,0.0768,0.0858,0.087,0.1007,0.107,0.1211,0.1384,0.149,0.1535,0.1292,0.1006,0.0565,0.0229,0.009,0.0025,-0.0048,-0.0111,0.0231,0.023,0.023,0.023,0.023,0.023,0.023,0.0231,0.065,0.0691,0.0723,0.0846,0.09,0.0992,0.1057,0.1153,0.1274,0.1451,0.156,0.1662,0.1567,0.0749,0.0149,-0.0019,-0.0287,-0.0316,-0.0505,-0.0265,-0.0253,-0.0241,-0.0265,-0.0368,-0.0369,-0.0763,-0.0767,-0.077]}],[{"header":{"parameterUnit":"m.s-1","parameterCategory":2,"la1":30.2991,"la2":30.254,"lo1":-89.0895,"lo2":-89.0444,"dy":0.0017,"dx":0.0017,"nx":28,"ny":28,"refTime":"2025-07-03T21:00:00:Z","depth":"2","parameterNumber":2,"parameterNumberName":"U-component_of_CURRENTS"},"data":[0,0,0,0,0,0,0,0,0,0,0,0,0,0,0,0,0,0,0,0,0,0,0,0,0,0,0,0,0,0,0,0,0,0,0,0,0,0,0,0,0,0,0,0,0,0,0,0,0,0,0,0,0,0,0,0,0,0,0.1019,0.1019,0,0.1026,0.1026,0.1026,0.0977,0.0976,0.0975,0.0974,0.0953,0.0953,0.0954,0,0,0,0,0,0,0,0,0,0,0,0,0,0.0986,0.0987,0.1018,0.1019,0.1019,0.1026,0.1026,0.1026,0.0978,0.0976,0.0975,0.0973,0.0952,0.0953,0.0954,0,0,0,0,0,0,0,0,0,0,0,0,0,0.0997,0.0987,0.1018,0.0996,0.0994,0.1026,0.1026,0.1026,0.0978,0.0976,0.0974,0.0972,0.0952,0.0953,0.0954,0.0999,0,0,0.0957,0.0957,0,0,0,0,0,0,0,0,0.0996,0.0998,0.0999,0.0998,0.0996,0.1,0.1007,0.1016,0.0978,0.0983,0.0974,0.0971,0.0968,0.0967,0.0972,0.0998,0.0997,0.0957,0.0958,0.0958,0.0958,0,0,0,0,0,0,0,0.0995,0.0997,0.102,0.1,0.0998,0.0994,0.0993,0.1009,0.0985,0.0983,0.0979,0.0982,0.0966,0.0971,0.0971,0.0996,0.0957,0.0958,0.0959,0.0959,0.11,0.1103,0,0,0,0,0,0,0.0998,0.0997,0.102,0.1021,0.0992,0.0996,0.0995,0.1,0.0985,0.0982,0.0984,0.098,0.0971,0.097,0.097,0.1041,0.0958,0.0959,0.096,0.1097,0.1101,0.1104,0,0,0,0,0,0,0.0997,0.1,0.102,0.1009,0.1012,0.0999,0.1004,0.1001,0.1002,0.0987,0.0982,0.0988,0.0969,0.0969,0.1008,0.1039,0.0959,0.096,0.1093,0.1098,0.1103,0.117,0,0,0,0,0,0,0.0996,0.1,0.1009,0.101,0.1012,0.1054,0.1006,0.1002,0.1008,0.1003,0.099,0.0986,0.0968,0.1007,0.1009,0.1038,0.0961,0.1089,0.1096,0.1101,0.1164,0.1176,0.1187,0,0,0,0,0,0.0995,0.1018,0.1009,0.1012,0.1024,0.1056,0.1058,0.104,0.101,0.103,0.1027,0.0986,0.1046,0.1011,0.1012,0.1042,0.1086,0.1094,0.1101,0.1158,0.1174,0.1187,0,0,0,0,0,0,0.1009,0.1015,0.1005,0.1028,0.1047,0.1048,0.1063,0.105,0.1063,0.1049,0.1027,0.1026,0.1074,0.1062,0.1024,0.1107,0.106,0.1068,0.1103,0.1118,0.1129,0.1089,0.0962,0,0,0,0,0,0.1018,0.1034,0.1044,0.1064,0.1074,0.1069,0.1079,0.1067,0.1076,0.1077,0.107,0.1076,0.1109,0.1114,0.1136,0.1179,0.1171,0.1204,0.1215,0.1225,0.1198,0.124,0.1252,0.1128,0.1128,0.1128,0,0,0.1027,0.1035,0.1042,0.1069,0.1075,0.1097,0.107,0.1089,0.1102,0.1076,0.1097,0.1119,0.1135,0.1186,0.1205,0.1173,0.1268,0.1234,0.1242,0.1209,0.1249,0.126,0.127,0.1133,0.1132,0.1131,0,0,0.1052,0.1064,0.108,0.1102,0.112,0.1124,0.1132,0.114,0.1141,0.1179,0.117,0.121,0.1244,0.1262,0.1277,0.1371,0.1336,0.1386,0.1398,0.1441,0.145,0.1458,0.1497,0.1508,0.1382,0.1382,0.1382,0,0.1056,0.1079,0.1095,0.112,0.1132,0.1136,0.1155,0.1174,0.1192,0.12,0.1193,0.1263,0.1278,0.1338,0.1371,0.1392,0.1406,0.1338,0.1452,0.146,0.1466,0.1504,0.1515,0.1386,0.1386,0.1385,0.1385,0,0.1088,0.1111,0.113,0.1154,0.1179,0.1202,0.1223,0.1244,0.1245,0.1254,0.1313,0.135,0.1376,0.1414,0.1416,0.1482,0.1476,0.1468,0.1404,0.1482,0.1519,0.1529,0.1392,0.1391,0.139,0.1388,0,0,0.1069,0.1134,0.1136,0.1154,0.1193,0.1213,0.125,0.1281,0.1295,0.1333,0.1361,0.1436,0.1435,0.1453,0.1476,0.1515,0.1598,0.1505,0.1506,0.1521,0.1692,0.1697,0.1707,0.1607,0.1609,0.161,0.1709,0,0.1079,0.1125,0.1155,0.1197,0.1219,0.1245,0.1279,0.1309,0.1336,0.1373,0.1415,0.1463,0.1459,0.1484,0.1521,0.1581,0.1621,0.1571,0.1631,0.1633,0.1608,0.1718,0.1444,0.151,0.1718,0.172,0.1721,0,0.1083,0.1116,0.1153,0.1209,0.122,0.1247,0.1286,0.132,0.1376,0.1399,0.1438,0.1468,0.1536,0.1526,0.1628,0.1595,0.1636,0.1679,0.1684,0.1656,0.1654,0.1462,0.1519,0.1737,0.1736,0.1734,0.1733,0,0.1046,0.111,0.1136,0.1157,0.1222,0.1238,0.1269,0.1319,0.1362,0.1415,0.146,0.151,0.1574,0.1614,0.1698,0.1663,0.1818,0.1783,0.1825,0.1826,0.1585,0.1563,0.1849,0.1849,0.1848,0.1848,0.1848,0,0.1036,0.1057,0.1122,0.1139,0.1176,0.1218,0.1263,0.1298,0.137,0.1435,0.1468,0.1541,0.1601,0.1695,0.1724,0.1821,0.1841,0.1838,0.1858,0.1609,0.1589,0.1762,0.1751,0.1852,0.1851,0.185,0.185,0,0.099,0.1034,0.1072,0.1137,0.1163,0.1183,0.1277,0.1317,0.1379,0.1469,0.1496,0.1601,0.1721,0.1795,0.1901,0.1886,0.1957,0.1986,0.1697,0.1681,0.192,0.1911,0.2016,0.2017,0.2018,0.2019,0.2019,0,0.0967,0.0982,0.1061,0.1096,0.1129,0.1181,0.1229,0.1308,0.1366,0.1511,0.1563,0.171,0.1794,0.1955,0.1919,0.1967,0.2057,0.1792,0.1674,0.1932,0.194,0.193,0.192,0.1389,0.1384,0.1381,0.1378,0,0.0917,0.0947,0.0981,0.1057,0.1113,0.1185,0.1261,0.1307,0.1411,0.1499,0.1622,0.1699,0.1812,0.1743,0.182,0.1797,0.175,0.1723,0.2068,0.1408,0.1354,0.1358,0.1366,0.1344,0.1348,0.135,0.1352,0.1353,0.087,0.0887,0.0941,0.1013,0.1085,0.116,0.1198,0.1287,0.137,0.1466,0.1583,0.1621,0.155,0.1529,0.1528,0.1516,0.1615,0.1513,0.1517,0.1528,0.1457,0.1409,0.1396,0.1399,0.1402,0.1405,0.1408,0,0.082,0.0857,0.0906,0.0982,0.1036,0.1112,0.1205,0.1223,0.1291,0.1373,0.1454,0.1233,0.1202,0.1239,0.1125,0.1127,0.1039,0.1133,0.0972,0.1002,0.1029,0.0929,0.0731,0.073,0.073,0.073,0,0,0.079,0.0812,0.0845,0.0907,0.098,0.1042,0.1087,0.1117,0.115,0.1119,0.1101,0.1143,0.1133,0.09,0.0844,0.0816,0.0919,0.0775,0.1287,0.1123,0.1152,0.1188,0.106,0,0,0,0,0]},{"header":{"parameterUnit":"m.s-1","parameterCategory":2,"la1":30.2991,"la2":30.254,"lo1":-89.0895,"lo2":-89.0444,"dy":0.0017,"dx":0.0017,"nx":28,"ny":28,"refTime":"2025-07-03T21:00:00:Z","depth":"2","parameterNumber":3,"parameterNumberName":"V-component_of_CURRENTS"},"data":[0,0,0,0,0,0,0,0,0,0,0,0,0,0,0,0,0,0,0,0,0,0,0,0,0,0,0,0,0,0,0,0,0,0,0,0,0,0,0,0,0,0,0,0,0,0,0,0,0,0,0,0,0,0,0,0,0,0,0.0004,0.0004,0,-0.0051,-0.0052,-0.0052,-0.0096,-0.0097,-0.0097,-0.0098,-0.0179,-0.018,-0.0182,0,0,0,0,0,0,0,0,0,0,0,0,0,0.0071,0.007,0.0004,0.0003,0.0003,-0.0051,-0.0052,-0.0052,-0.0096,-0.0097,-0.0097,-0.0098,-0.0178,-0.018,-0.0182,0,0,0,0,0,0,0,0,0,0,0,0,0,0.0031,0.0069,0.0004,-0.0026,-0.0029,-0.0051,-0.0052,-0.0053,-0.0096,-0.0097,-0.0098,-0.0098,-0.0177,-0.018,-0.0183,-0.0185,0,0,-0.0191,-0.0192,0,0,0,0,0,0,0,0,0.0034,0.0029,-0.0021,-0.0024,-0.0027,-0.0068,-0.0058,-0.0098,-0.0096,-0.007,-0.0098,-0.0099,-0.0144,-0.0149,-0.0157,-0.0189,-0.0192,-0.0191,-0.0192,-0.0193,-0.0194,0,0,0,0,0,0,0,0.0036,0.0031,-0.0018,-0.0021,-0.0025,-0.0037,-0.0043,-0.0066,-0.0103,-0.0073,-0.0076,-0.0082,-0.0146,-0.0155,-0.016,-0.0193,-0.0191,-0.0193,-0.0195,-0.0196,-0.0241,-0.0241,0,0,0,0,0,0,0.0044,0.0034,-0.0016,-0.0019,0.0002,-0.0037,-0.0044,-0.0054,-0.0102,-0.011,-0.0082,-0.0084,-0.015,-0.0156,-0.0163,-0.0166,-0.0193,-0.0196,-0.0197,-0.0242,-0.0241,-0.0241,0,0,0,0,0,0,0.0045,0.004,-0.0014,0.0006,-0.0002,-0.0038,-0.0048,-0.0055,-0.0066,-0.0109,-0.0117,-0.0087,-0.0151,-0.0159,-0.0179,-0.0169,-0.0197,-0.0199,-0.0242,-0.0242,-0.0241,-0.0174,0,0,0,0,0,0,0.0047,0.0041,0.0039,0.0007,-0.0002,-0.002,-0.0048,-0.0055,-0.0069,-0.0073,-0.0116,-0.0124,-0.0152,-0.0175,-0.0181,-0.0173,-0.0201,-0.0243,-0.0242,-0.0241,-0.0176,-0.0171,-0.0166,0,0,0,0,0,0.005,0.0052,0.004,0.0034,-0.0004,-0.002,-0.0025,-0.0053,-0.0068,-0.0067,-0.0096,-0.0123,-0.0176,-0.0176,-0.0184,-0.0177,-0.0243,-0.0242,-0.0241,-0.0178,-0.0172,-0.0166,0,0,0,0,0,0,0.0085,0.0047,0.0033,0.0024,0.0006,-0.0027,-0.0029,-0.0049,-0.0071,-0.0075,-0.0117,-0.0126,-0.0141,-0.0168,-0.0167,-0.0189,-0.0214,-0.0215,-0.0164,-0.0158,-0.0153,-0.0147,-0.0204,0,0,0,0,0,0.0092,0.0081,0.0048,0.0045,0.0036,0.0005,-0.0005,-0.0022,-0.0048,-0.0058,-0.0087,-0.0118,-0.0143,-0.0157,-0.0182,-0.0192,-0.023,-0.0194,-0.0188,-0.0184,-0.0185,-0.0234,-0.0233,-0.0238,-0.0238,-0.0238,0,0,0.0106,0.0084,0.0079,0.0052,0.0035,0.0027,-0.0002,-0.0012,-0.0018,-0.0063,-0.0075,-0.0101,-0.0142,-0.0152,-0.0161,-0.0174,-0.0201,-0.0183,-0.0179,-0.0182,-0.0233,-0.0232,-0.0232,-0.0238,-0.0238,-0.0238,0,0,0.0131,0.011,0.0108,0.0093,0.007,0.005,0.0049,0.002,0.0007,-0.0003,-0.0039,-0.0057,-0.0092,-0.0118,-0.0138,-0.012,-0.0172,-0.0129,-0.01,-0.0146,-0.0146,-0.0147,-0.0187,-0.0191,-0.0127,-0.0127,-0.0127,0,0.0151,0.0136,0.0109,0.0104,0.0091,0.0062,0.006,0.0048,0.0018,0.0007,0.0002,-0.0051,-0.0076,-0.0104,-0.0092,-0.0108,-0.0145,-0.0117,-0.014,-0.0141,-0.0143,-0.0184,-0.019,-0.0124,-0.0124,-0.0125,-0.0125,0,0.0166,0.0157,0.0158,0.0136,0.0125,0.012,0.0095,0.0088,0.0072,0.0055,0.0033,0.0002,-0.0033,-0.0038,-0.0057,-0.0081,-0.0105,-0.0126,-0.0153,-0.0138,-0.0182,-0.019,-0.0119,-0.012,-0.0121,-0.0122,0,0,0.019,0.0172,0.017,0.016,0.0137,0.0125,0.0124,0.0103,0.0096,0.0081,0.0066,0.0042,0.0024,0.0001,-0.0027,-0.0058,-0.0087,-0.0089,-0.0093,-0.0124,-0.0191,-0.0161,-0.0166,-0.0116,-0.0117,-0.0118,-0.0214,0,0.0205,0.0204,0.0189,0.0183,0.0172,0.0149,0.0146,0.0129,0.0116,0.0101,0.0071,0.0053,0.0038,0.0026,-0.0006,-0.007,-0.0106,-0.0059,-0.0205,-0.0209,-0.0181,-0.0173,-0.0167,-0.0248,-0.0222,-0.0223,-0.0224,0,0.0203,0.0203,0.0204,0.0186,0.018,0.018,0.0155,0.0152,0.0131,0.0124,0.0104,0.0079,0.0043,0.0028,-0.0075,-0.0048,-0.0111,-0.016,-0.0166,-0.0167,-0.0192,-0.0261,-0.0263,-0.0237,-0.0236,-0.0235,-0.0234,0,0.0195,0.0199,0.0198,0.0192,0.0181,0.0179,0.0175,0.0159,0.0162,0.014,0.0146,0.0086,0.0069,-0.0021,-0.0099,-0.0098,-0.0217,-0.0236,-0.0274,-0.0273,-0.031,-0.031,-0.0319,-0.0318,-0.0318,-0.0318,-0.0318,0,0.0182,0.0174,0.0199,0.0191,0.0194,0.0186,0.0188,0.0177,0.0183,0.0193,0.0162,0.0163,0.0057,-0.0011,-0.0103,-0.02,-0.0227,-0.0268,-0.0295,-0.0284,-0.028,-0.0308,-0.0305,-0.0322,-0.0321,-0.032,-0.0319,0,0.0138,0.0159,0.0153,0.0171,0.0183,0.0178,0.0206,0.0213,0.0222,0.0236,0.0237,0.0211,0.0141,0.003,-0.0113,-0.019,-0.0301,-0.0334,-0.0303,-0.0322,-0.0329,-0.0322,-0.0393,-0.0393,-0.0393,-0.0392,-0.0392,0,0.0106,0.0106,0.0138,0.0152,0.0159,0.0176,0.0195,0.0221,0.0244,0.0272,0.0283,0.0245,0.0249,0.0067,-0.0087,-0.0244,-0.0282,-0.0361,-0.0348,-0.0317,-0.0337,-0.033,-0.0324,-0.0382,-0.0382,-0.0382,-0.0381,0,0.0051,0.0071,0.0076,0.0121,0.015,0.0182,0.0223,0.0257,0.0296,0.0353,0.0404,0.0422,0.0281,0.0142,-0.006,-0.0166,-0.0331,-0.0358,-0.0363,-0.0341,-0.0308,-0.0326,-0.0321,-0.038,-0.038,-0.038,-0.038,-0.038,0.002,0.002,0.0061,0.0102,0.0136,0.0203,0.0265,0.0335,0.0427,0.0564,0.0527,0.056,0.0301,0.0091,-0.0083,-0.0261,-0.0262,-0.0369,-0.037,-0.0371,-0.033,-0.0296,-0.0358,-0.0358,-0.0358,-0.0358,-0.0358,0,0.0029,0.0043,0.0054,0.0124,0.0178,0.0208,0.0304,0.0414,0.0576,0.0649,0.0761,0.0499,0.0365,0.011,-0.0139,-0.0299,-0.0305,-0.0358,-0.0366,-0.0367,-0.0368,-0.0326,-0.0354,-0.0354,-0.0354,-0.0354,0,0,0.0044,0.007,0.0086,0.018,0.0232,0.0365,0.0449,0.0613,0.0698,0.0786,0.0774,0.0774,0.0375,0.0157,-0.0072,-0.0195,-0.022,-0.0204,-0.0195,-0.0175,-0.0173,-0.0371,-0.0307,0,0,0,0,0]}],[{"header":{"parameterUnit":"m.s-1","parameterCategory":2,"la1":30.2991,"la2":30.254,"lo1":-89.0895,"lo2":-89.0444,"dy":0.0017,"dx":0.0017,"nx":28,"ny":28,"refTime":"2025-07-03T21:00:00:Z","depth":"4","parameterNumber":2,"parameterNumberName":"U-component_of_CURRENTS"},"data":[0,0,0,0,0,0,0,0,0,0,0,0,0,0,0,0,0,0,0,0,0,0,0,0,0,0,0,0,0,0,0,0,0,0,0,0,0,0,0,0,0,0,0,0,0,0,0,0,0,0,0,0,0,0,0,0,0,0,0.0291,0.0292,0,0.0295,0.0295,0.0295,0.0311,0.0311,0.0312,0.0312,0.0303,0.0302,0.0302,0,0,0,0,0,0,0,0,0,0,0,0,0,0.0252,0.0253,0.0291,0.0292,0.0292,0.0295,0.0295,0.0295,0.0311,0.0311,0.0312,0.0312,0.0303,0.0303,0.0302,0,0,0,0,0,0,0,0,0,0,0,0,0,0.0262,0.0253,0.0291,0.0301,0.0302,0.0295,0.0295,0.0295,0.031,0.0311,0.0312,0.0313,0.0304,0.0303,0.0302,0.028,0,0,0.0298,0.0298,0,0,0,0,0,0,0,0,0.0262,0.0264,0.03,0.03,0.0302,0.0304,0.0278,0.0289,0.031,0.0306,0.0312,0.0313,0.0303,0.0302,0.0299,0.0279,0.0279,0.0298,0.0298,0.0297,0.0297,0,0,0,0,0,0,0,0.0261,0.0263,0.0291,0.03,0.0301,0.0289,0.0292,0.028,0.0299,0.0306,0.0308,0.031,0.0303,0.03,0.0299,0.0279,0.0298,0.0297,0.0297,0.0296,0.0251,0.0251,0,0,0,0,0,0,0.0265,0.0263,0.0291,0.0292,0.0285,0.029,0.0293,0.0302,0.0299,0.03,0.031,0.0311,0.0301,0.03,0.0299,0.0296,0.0297,0.0296,0.0295,0.0252,0.0251,0.0251,0,0,0,0,0,0,0.0264,0.0268,0.0291,0.0278,0.028,0.029,0.03,0.0301,0.0311,0.0302,0.0303,0.032,0.0302,0.03,0.0291,0.0295,0.0296,0.0295,0.0253,0.0252,0.0251,0.0277,0,0,0,0,0,0,0.0263,0.0268,0.0273,0.0278,0.0281,0.0294,0.0299,0.0301,0.0311,0.0314,0.0311,0.031,0.0302,0.0293,0.029,0.0294,0.0294,0.0253,0.0252,0.0251,0.0277,0.0277,0.0277,0,0,0,0,0,0.0262,0.0264,0.0274,0.0277,0.029,0.0294,0.0294,0.0302,0.0311,0.0315,0.0309,0.0311,0.0284,0.0292,0.0289,0.0292,0.0254,0.0252,0.0251,0.0276,0.0277,0.0277,0,0,0,0,0,0,0.0241,0.0266,0.0277,0.0285,0.0294,0.0298,0.0299,0.0308,0.0306,0.031,0.0304,0.0302,0.0293,0.0285,0.0293,0.0273,0.0269,0.0267,0.0289,0.0289,0.029,0.0307,0.0293,0,0,0,0,0,0.0241,0.0255,0.0272,0.0277,0.0286,0.0296,0.0299,0.0307,0.0307,0.0309,0.0307,0.0297,0.0282,0.0282,0.0265,0.0258,0.0258,0.0256,0.0257,0.0257,0.0268,0.026,0.0262,0.0247,0.0247,0.0247,0,0,0.0231,0.0248,0.0253,0.0274,0.0283,0.0294,0.03,0.0308,0.0314,0.0306,0.0309,0.0297,0.0278,0.0267,0.0263,0.0266,0.0261,0.0256,0.0256,0.0267,0.0259,0.0261,0.0263,0.0246,0.0246,0.0246,0,0,0.0219,0.0238,0.0249,0.0264,0.0285,0.0291,0.0299,0.0311,0.0315,0.0315,0.0306,0.0298,0.0284,0.0271,0.0262,0.0252,0.0258,0.0248,0.0273,0.0265,0.0267,0.0269,0.0275,0.0277,0.0255,0.0255,0.0255,0,0.0207,0.0229,0.0249,0.0267,0.0279,0.0295,0.0308,0.0309,0.0315,0.0318,0.032,0.0298,0.0284,0.027,0.0271,0.0255,0.026,0.0276,0.0268,0.027,0.0271,0.0277,0.0279,0.0256,0.0256,0.0255,0.0255,0,0.0209,0.0229,0.0236,0.027,0.0283,0.0294,0.0309,0.0317,0.0326,0.033,0.0325,0.0305,0.0301,0.0287,0.0281,0.0279,0.0283,0.0267,0.0273,0.0274,0.028,0.0282,0.0257,0.0257,0.0257,0.0256,0,0,0.0169,0.0228,0.023,0.0255,0.029,0.0299,0.0311,0.0326,0.0339,0.0337,0.0348,0.0323,0.033,0.032,0.0306,0.0301,0.0312,0.0299,0.0298,0.0317,0.0315,0.0318,0.032,0.0302,0.0302,0.0302,0.0318,0,0.0165,0.0203,0.0232,0.0261,0.0282,0.0309,0.032,0.0335,0.0347,0.0358,0.0344,0.0347,0.0337,0.0343,0.0336,0.0315,0.0317,0.0311,0.0302,0.0302,0.0313,0.0322,0.0303,0.032,0.032,0.032,0.032,0,0.0154,0.0186,0.0217,0.0273,0.0285,0.0303,0.0337,0.0351,0.0368,0.038,0.039,0.0389,0.0387,0.0373,0.0359,0.0361,0.035,0.0331,0.0331,0.0328,0.0307,0.0315,0.0323,0.0323,0.0323,0.0322,0.0322,0,0.0115,0.0173,0.0201,0.0219,0.0278,0.0297,0.0328,0.0356,0.0371,0.0402,0.0421,0.042,0.0426,0.0408,0.0389,0.0382,0.0368,0.0347,0.0338,0.0338,0.0321,0.0319,0.034,0.034,0.034,0.034,0.034,0,0.0095,0.012,0.019,0.0204,0.0239,0.0288,0.032,0.035,0.0388,0.0408,0.0437,0.0432,0.0438,0.0431,0.0405,0.0385,0.0385,0.0353,0.0344,0.033,0.0329,0.0322,0.032,0.034,0.034,0.034,0.034,0,0.0049,0.0093,0.0129,0.0196,0.0221,0.0245,0.032,0.034,0.0391,0.0419,0.0435,0.0453,0.0445,0.0446,0.0417,0.0411,0.0382,0.0373,0.0378,0.0367,0.0356,0.0354,0.0372,0.0372,0.0372,0.0373,0.0373,0,0.0036,0.0047,0.0113,0.0136,0.0171,0.0222,0.0254,0.0323,0.0349,0.0407,0.0408,0.0431,0.0437,0.0406,0.0396,0.0384,0.037,0.0389,0.0361,0.037,0.0359,0.0358,0.0356,0.0373,0.0373,0.0373,0.0373,0,0.0005,0.0022,0.0051,0.01,0.0139,0.0181,0.024,0.0255,0.0332,0.0379,0.039,0.0404,0.0398,0.0379,0.0399,0.0368,0.0396,0.0391,0.039,0.0363,0.0372,0.036,0.0359,0.0374,0.0374,0.0374,0.0374,0,-0.0022,-0.0012,0.0028,0.0074,0.0116,0.0148,0.0176,0.0226,0.0264,0.035,0.0329,0.0349,0.0372,0.0367,0.0351,0.0367,0.0354,0.0366,0.0365,0.0365,0.0356,0.0365,0.0367,0,0,0,0,0,-0.0046,-0.0024,0.0011,0.0062,0.0101,0.0133,0.0178,0.0205,0.0271,0.0282,0.0324,0.0316,0.0333,0.0313,0.0324,0.033,0.0345,0.0344,0.0354,0.0378,0.0377,0.0368,0,0,0,0,0,0,-0.0058,-0.0034,0.0003,0.0053,0.0087,0.013,0.0153,0.0188,0.0199,0.0261,0.0247,0.0323,0.0306,0.0323,0.0322,0.0328,0.0338,0.0365,0.0366,0.0379,0.0378,0.0377,0.0368,0,0,0,0,0]},{"header":{"parameterUnit":"m.s-1","parameterCategory":2,"la1":30.2991,"la2":30.254,"lo1":-89.0895,"lo2":-89.0444,"dy":0.0017,"dx":0.0017,"nx":28,"ny":28,"refTime":"2025-07-03T21:00:00:Z","depth":"4","parameterNumber":3,"parameterNumberName":"V-component_of_CURRENTS"},"data":[0,0,0,0,0,0,0,0,0,0,0,0,0,0,0,0,0,0,0,0,0,0,0,0,0,0,0,0,0,0,0,0,0,0,0,0,0,0,0,0,0,0,0,0,0,0,0,0,0,0,0,0,0,0,0,0,0,0,-0.0183,-0.0183,0,-0.0218,-0.0218,-0.0219,-0.0234,-0.0234,-0.0233,-0.0233,-0.0284,-0.0286,-0.0287,0,0,0,0,0,0,0,0,0,0,0,0,0,-0.0132,-0.0133,-0.0183,-0.0183,-0.0183,-0.0218,-0.0218,-0.0219,-0.0234,-0.0234,-0.0233,-0.0233,-0.0284,-0.0285,-0.0287,0,0,0,0,0,0,0,0,0,0,0,0,0,-0.016,-0.0133,-0.0183,-0.0194,-0.0196,-0.0217,-0.0218,-0.0219,-0.0234,-0.0234,-0.0233,-0.0233,-0.0283,-0.0285,-0.0287,-0.0305,0,0,-0.0294,-0.0295,0,0,0,0,0,0,0,0,-0.0158,-0.0162,-0.0192,-0.0194,-0.0195,-0.022,-0.0219,-0.0248,-0.0234,-0.022,-0.0233,-0.0233,-0.0264,-0.0268,-0.0276,-0.0307,-0.031,-0.0294,-0.0296,-0.0297,-0.0297,0,0,0,0,0,0,0,-0.0157,-0.0161,-0.0197,-0.0193,-0.0194,-0.0199,-0.0203,-0.0225,-0.0244,-0.0221,-0.0222,-0.0225,-0.0265,-0.0273,-0.0277,-0.031,-0.0294,-0.0296,-0.0298,-0.0299,-0.0397,-0.0398,0,0,0,0,0,0,-0.0151,-0.0159,-0.0196,-0.0198,-0.0175,-0.02,-0.0204,-0.0213,-0.0243,-0.0247,-0.0225,-0.0226,-0.027,-0.0274,-0.0279,-0.0322,-0.0297,-0.0299,-0.03,-0.0396,-0.0397,-0.0399,0,0,0,0,0,0,-0.015,-0.0154,-0.0195,-0.0178,-0.0184,-0.0201,-0.0211,-0.0214,-0.0241,-0.0246,-0.025,-0.0251,-0.027,-0.0276,-0.0315,-0.0323,-0.03,-0.0302,-0.0394,-0.0396,-0.0398,-0.0394,0,0,0,0,0,0,-0.0148,-0.0154,-0.0171,-0.0178,-0.0184,-0.0215,-0.0211,-0.0215,-0.0241,-0.0243,-0.0269,-0.0272,-0.027,-0.0312,-0.0317,-0.0326,-0.0303,-0.0393,-0.0395,-0.0397,-0.0393,-0.0396,-0.0399,0,0,0,0,0,-0.0146,-0.016,-0.0171,-0.0176,-0.0203,-0.0216,-0.022,-0.0231,-0.0243,-0.0256,-0.0279,-0.0272,-0.0331,-0.0315,-0.0321,-0.033,-0.0391,-0.0394,-0.0397,-0.0392,-0.0395,-0.0399,0,0,0,0,0,0,-0.0154,-0.0164,-0.0175,-0.0195,-0.021,-0.0218,-0.0236,-0.0246,-0.0276,-0.0286,-0.0292,-0.0297,-0.0334,-0.0342,-0.0324,-0.0368,-0.0359,-0.0364,-0.0353,-0.0357,-0.036,-0.0341,-0.0305,0,0,0,0,0,-0.0163,-0.0176,-0.0187,-0.0209,-0.0218,-0.0235,-0.0248,-0.0256,-0.0276,-0.0289,-0.0308,-0.0331,-0.0349,-0.0361,-0.0381,-0.0409,-0.0399,-0.042,-0.0423,-0.0425,-0.0416,-0.0412,-0.0412,-0.0408,-0.0408,-0.0408,0,0,-0.0174,-0.0182,-0.0192,-0.0212,-0.0229,-0.0233,-0.0243,-0.0268,-0.0273,-0.0291,-0.0322,-0.0347,-0.0362,-0.0387,-0.0404,-0.0395,-0.0424,-0.0429,-0.043,-0.042,-0.0414,-0.0414,-0.0414,-0.041,-0.041,-0.041,0,0,-0.0183,-0.0212,-0.0217,-0.0227,-0.0249,-0.0256,-0.0267,-0.0289,-0.0304,-0.0335,-0.0347,-0.0379,-0.0413,-0.0417,-0.0423,-0.0459,-0.0442,-0.0472,-0.0465,-0.0461,-0.046,-0.0459,-0.0449,-0.0447,-0.0469,-0.0469,-0.0469,0,-0.0198,-0.0202,-0.0223,-0.0225,-0.0234,-0.0265,-0.0268,-0.0285,-0.0318,-0.0332,-0.0347,-0.0403,-0.042,-0.0435,-0.0444,-0.0462,-0.0455,-0.0445,-0.0461,-0.046,-0.0459,-0.0448,-0.0446,-0.0469,-0.0469,-0.0469,-0.0469,0,-0.0195,-0.0206,-0.0214,-0.0223,-0.0237,-0.0252,-0.0268,-0.0293,-0.0322,-0.0337,-0.038,-0.0411,-0.0435,-0.0452,-0.0456,-0.0466,-0.0461,-0.0465,-0.0443,-0.0459,-0.0447,-0.0445,-0.0469,-0.0469,-0.0469,-0.0469,0,0,-0.0212,-0.021,-0.0217,-0.0216,-0.0239,-0.0249,-0.0264,-0.0283,-0.0296,-0.0341,-0.0358,-0.04,-0.0426,-0.0435,-0.0455,-0.0456,-0.0449,-0.0456,-0.0456,-0.0429,-0.0432,-0.0426,-0.0423,-0.0452,-0.0452,-0.0452,-0.0425,0,-0.0208,-0.02,-0.0204,-0.021,-0.0207,-0.0234,-0.0242,-0.0267,-0.0298,-0.0325,-0.0363,-0.039,-0.0415,-0.0431,-0.0438,-0.045,-0.0443,-0.0455,-0.0435,-0.0434,-0.0413,-0.042,-0.0451,-0.0423,-0.0423,-0.0423,-0.0422,0,-0.02,-0.0195,-0.0191,-0.0191,-0.0197,-0.0207,-0.0235,-0.0245,-0.028,-0.0302,-0.0338,-0.0368,-0.0389,-0.0407,-0.0419,-0.0425,-0.0423,-0.043,-0.0429,-0.0419,-0.0424,-0.0407,-0.0418,-0.0419,-0.0419,-0.0419,-0.042,0,-0.0188,-0.0188,-0.0186,-0.0188,-0.0193,-0.0205,-0.0217,-0.0247,-0.0251,-0.0288,-0.0297,-0.0338,-0.0352,-0.0366,-0.0389,-0.0398,-0.0394,-0.0407,-0.0397,-0.0396,-0.0408,-0.0409,-0.0397,-0.0397,-0.0397,-0.0397,-0.0397,0,-0.0169,-0.0165,-0.0184,-0.0179,-0.0183,-0.0199,-0.0209,-0.0222,-0.0241,-0.0241,-0.0286,-0.0293,-0.034,-0.0352,-0.0373,-0.0379,-0.0378,-0.039,-0.0388,-0.041,-0.0412,-0.0406,-0.0408,-0.0396,-0.0397,-0.0397,-0.0397,0,-0.0132,-0.0149,-0.014,-0.016,-0.0171,-0.0174,-0.0186,-0.0187,-0.0208,-0.0207,-0.0211,-0.0248,-0.0268,-0.0308,-0.0328,-0.0347,-0.036,-0.0357,-0.0369,-0.037,-0.0368,-0.037,-0.0343,-0.0343,-0.0342,-0.0342,-0.0342,0,-0.0096,-0.0093,-0.0123,-0.0127,-0.0135,-0.0146,-0.0149,-0.0169,-0.0166,-0.0177,-0.0171,-0.0193,-0.022,-0.0245,-0.0294,-0.0327,-0.0334,-0.0334,-0.0361,-0.036,-0.0362,-0.0364,-0.0367,-0.0341,-0.0341,-0.0341,-0.0341,0,-0.0026,-0.0056,-0.0054,-0.0075,-0.009,-0.0091,-0.0101,-0.0096,-0.0112,-0.0122,-0.0126,-0.0156,-0.0179,-0.0231,-0.0254,-0.0282,-0.0338,-0.033,-0.0331,-0.0357,-0.0358,-0.036,-0.0363,-0.034,-0.034,-0.034,-0.034,0,0.0015,0.0021,-0.0008,-0.003,-0.0031,-0.0047,-0.0056,-0.0061,-0.0066,-0.0083,-0.0082,-0.0125,-0.0153,-0.0205,-0.0231,-0.026,-0.0272,-0.0281,-0.0285,-0.0287,-0.029,-0.0284,-0.0234,0,0,0,0,0,0.0042,0.0027,0.0036,-0.0001,0.0006,-0.0018,-0.0026,-0.0039,-0.0059,-0.0049,-0.0066,-0.0089,-0.014,-0.0175,-0.0199,-0.0231,-0.0281,-0.0262,-0.0294,-0.0332,-0.0334,-0.0348,0,0,0,0,0,0,0.0044,0.0051,0.0039,0.0028,0.0009,0.0001,-0.0011,-0.0026,-0.0029,-0.0045,-0.0074,-0.0091,-0.0147,-0.0123,-0.0199,-0.0211,-0.0234,-0.0291,-0.0291,-0.0331,-0.0333,-0.0334,-0.0349,0,0,0,0,0]}]]